User: anonymous   Login
Location: Colorado Springs
(38.8340°N, 104.8210°W)
Time: 13:42:46
(UTC-06:00)
Language:

N. Korean satellite - Orbit

View from above orbital plane
View from above orbital plane
View from above satellite
View from above satellite

Ground track
Ground track

The orbit data is extracted from the following two-line orbital elements,

1 39026U 12072A   18201.90811054 +.00001185 +00000-0 +46748-4 0  9990
2 39026 097.2099 211.1275 0038418 200.9721 158.9944 15.26845035310746
Epoch (UTC): 20 July 2018 21:47:40
Eccentricity: 0.0038418
inclination: 97.2099°
perigee height: 459 km
apogee height: 511 km
right ascension of ascending node: 211.1275°
argument of perigee: 200.9721°
revolutions per day: 15.26845035
mean anomaly at epoch: 158.9944°
orbit number at epoch: 31074

The dashed part of the orbit path shows where the satellite is in the earth's shadow,  

DLR